Tracking 29892 objects as of 21-Nov-2024
HD Live streaming from Space Station
objects crossing your sky now

SL-8 R/B

Track SL-8 R/B now!
10-day predictions


NORAD ID: 12804
Int'l Code: 1981-087B
Perigee: 906.7 km
Apogee: 967.3 km
Inclination: 82.9 °
Period: 103.6 minutes
Semi major axis: 7308 km
RCS: 4.6283 m2 (large)
Launch date: September 4, 1981
Source: Commonwealth of Independent States (former USSR) (CIS)
Launch site: PLESETSK MISSILE AND SPACE COMPLEX (PKMTR)

Note: This is a ROCKET BODY
Your satellite tracking list
Your tracking list is empty




NASA's NSSDC Master Catalog

Two Line Element Set (TLE):
1 12804U 81087B   24325.30597057  .00000132  00000-0  94491-4 0  9998
2 12804  82.9297  80.9795 0041424 312.4324  75.8997 13.89643880189852
Source of the keplerian elements: AFSPC